Regional Weather Roundup
Issued by NWS Portland, ME

Current Version | Previous Version | Text Only | Print | Product List | Glossary Off
Versions: 1 2 3 4 5 6 7 8 9 10 11 12 13 14 15 16 17 18 19 20 21 22 23 24 25 26 27 28 29 30 31 32 33 34 35 36 37 38 39 40 41 42 43 44 45 46 47 48 49 50
541 ASUS41 KGYX 211210 RWRGYX WEATHER ROUNDUP FOR MAINE AND NEW HAMPSHIRE NATIONAL WEATHER SERVICE GRAY ME 800 AM EDT SAT OCT 21 2017 MEZ002-005-006-010-012-015-018-020-021-024-026-027-029-211300- MAINE CITY SKY/WX TMP DP RH WIND PRES REMARKS PORTLAND PTCLDY 45 39 79 SE5 30.23R 6HR MIN TEMP: 42; 6HR MAX TEMP: 49; SANFORD CLEAR 45 41 86 VRB3 30.24R BAR HARBOR CLEAR 45 39 79 CALM 30.24R WISCASSET CLEAR 43 38 82 CALM 30.24R 6HR MIN TEMP: 40; 6HR MAX TEMP: 44; ROCKLAND CLEAR 42 39 89 W5 30.23R FRYEBURG CLEAR 45 42 89 CALM 30.21R 6HR MIN TEMP: 41; 6HR MAX TEMP: 55; LEWISTONAUBURN CLEAR 42 38 85 CALM 30.23R AUGUSTA CLEAR 50 37 61 SW3 30.22R 6HR MIN TEMP: 45; 6HR MAX TEMP: 54; WATERVILLE PTCLDY 45 40 82 CALM 30.20R BANGOR MOCLDY 43 37 79 CALM 30.23R 6HR MIN TEMP: 38; 6HR MAX TEMP: 44; GREENVILLE N/A 44 37 76 N6 30.19R 6HR MIN TEMP: 41; 6HR MAX TEMP: 47; MILLINOCKET PTCLDY 44 36 73 NW5 30.22R 6HR MIN TEMP: 41; 6HR MAX TEMP: 49; HOULTON CLEAR 35 33 92 CALM 30.20R 6HR MIN TEMP: 31; 6HR MAX TEMP: 40; PRESQUE ISLE CLEAR 34 32 92 CALM 30.22R 6HR MIN TEMP: 28; 6HR MAX TEMP: 41; FRENCHVILLE CLEAR 35 28 75 NW5 30.18R 6HR MIN TEMP: 33; 6HR MAX TEMP: 39; CARIBOU CLEAR 38 32 79 CALM 30.20R 6HR MIN TEMP: 34; 6HR MAX TEMP: 40; $$ NHZ002-005-008-009-011-012-014-211300- NEW HAMPSHIRE CITY SKY/WX TMP DP RH WIND PRES REMARKS PORTSMOUTH PTCLDY 51 42 72 CALM 30.23R ROCHESTER CLEAR 56 33 42 VRB5 30.23R 6HR MIN TEMP: 46; 6HR MAX TEMP: 56; NASHUA CLEAR 41 39 93 NW3 30.27R MANCHESTER PTCLDY 43 39 86 CALM 30.24R 6HR MIN TEMP: 43; 6HR MAX TEMP: 49; CONCORD CLEAR 40 36 86 CALM 30.26R 6HR MIN TEMP: 37; 6HR MAX TEMP: 45; LACONIA CLEAR 49 42 77 W5 30.25R PLYMOUTH FAIR 36 35 96 CALM 30.26R BERLIN CLEAR 30 29 96 CALM 30.25R 6HR MIN TEMP: 29; 6HR MAX TEMP: 38; WHITEFIELD CLEAR 31 29 92 CALM 30.26R 6HR MIN TEMP: 29; 6HR MAX TEMP: 33; JAFFREY CLEAR 43 39 86 S6 30.28R 6HR MIN TEMP: 40; 6HR MAX TEMP: 45; KEENE CLEAR 34 33 96 CALM 30.31R LEBANON CLEAR 36 34 92 CALM 30.28R 6HR MIN TEMP: 34; 6HR MAX TEMP: 40; MT WASHINGTON PTCLDY 39 30 70 W53 N/A 6HR MIN TEMP: 34; 6HR MAX TEMP: 39; $$ VTZ005-007-008-211300- VERMONT CITY SKY/WX TMP DP RH WIND PRES REMARKS ST JOHNSBURY N/A 34 34 100 MISG 30.26R BURLINGTON PTCLDY 46 40 79 CALM 30.24R $$ MAZ007-012-024-CTZ003-RIZ002-NYZ038-NYZ072-211300- SOUTHERN NEW ENGLAND AND NY CITY SKY/WX TMP DP RH WIND PRES REMARKS BOSTON PTCLDY 54 41 61 S5 30.26R WORCESTER CLEAR 55 31 39 W13 30.28R NANTUCKET CLEAR 51 50 96 CALM 30.28R PROVIDENCE PTCLDY 47 44 90 CALM 30.29R HARTFORD PTCLDY 42 39 89 CALM 30.30R ALBANY PTCLDY 42 36 79 CALM 30.32R NEW YORK CITY PTCLDY 61 45 55 CALM 30.30R $$ ANZ081-ANZ082-ANZ150-NHZ014-MEZ023>029-211300- COASTAL MARINE OBSERVATIONS STATION/POSITION TIME TEMP WIND PRES WAVE AIR SEA DIR/SP/G HT/PER (UTC) (F) (DEG/KT/KT) (MB) (FT/S) MOUNT DESERT ROC 1200 55 260/ 4/ 4 1024.0R MATINICUS ROCK 1100 55 250/ 8/ 9 1022.4R ISLE OF SHOALS 1100 55 270/ 7/ 7 1023.1R JEFFREYS LEDGE 1136 58 N/A 1/ 8 GEORGES BANK BUO 1050 58 58 1021.8 4/ 7 $$ .............KEY.............. WCI - WIND CHILL TC - TEMPERATURE IN CELSIUS VSB - VISIBILITY IN MILES HX - HEAT INDEX FAIR- INDICATES FEW OR NO CLOUDS BELOW 12,000 FT, WITH NO SIGNIFICANT WEATHER AND/OR OBSTRUCTIONS TO VISIBILITY.

USA.gov is the U.S. government's official web portal to all federal, state and local government web resources and services.